This is the latest recevied weather packets stored in our database for station/object N8BAP. If no packets are shown the sender has not sent any weather packets the latest 1 day(s).
| Time | Temp. | Humidity | Pressure | Rain* | Wind** | Luminosity | Snow |
|---|---|---|---|---|---|---|---|
| 1778012238 | 21.11° C | 60% | 1013.2 hPa | 0 mm | 4.02 m/s, 252° | 230 W/m² | - |
| 1778011936 | 21.11° C | 58% | 1013.5 hPa | 0 mm | 5.36 m/s, 237° | 274 W/m² | - |
| 1778011634 | 21.11° C | 60% | 1013.5 hPa | 0 mm | 4.02 m/s, 237° | 431 W/m² | - |
| 1778011331 | 21.11° C | 59% | 1013.5 hPa | 0 mm | 4.02 m/s, 244° | 239 W/m² | - |
| 1778011027 | 21.11° C | 60% | 1013.5 hPa | 0 mm | 2.68 m/s, 213° | 212 W/m² | - |
| 1778010724 | 21.11° C | 58% | 1013.6 hPa | 0 mm | 3.13 m/s, 215° | 324 W/m² | - |
| 1778010421 | 21.11° C | 59% | 1013.6 hPa | 0 mm | 4.92 m/s, 244° | 380 W/m² | - |
| 1778010117 | 20.56° C | 60% | 1013.5 hPa | 0 mm | 4.02 m/s, 247° | 270 W/m² | - |
| 1778009814 | 20.56° C | 59% | 1013.4 hPa | 0 mm | 4.02 m/s, 220° | 233 W/m² | - |
| 1778009511 | 20.56° C | 59% | 1013.7 hPa | 0 mm | 4.02 m/s, 215° | 219 W/m² | - |
| 1778009210 | 20.56° C | 60% | 1013.7 hPa | 0 mm | 3.13 m/s, 183° | 223 W/m² | - |
| 1778008907 | 20.56° C | 60% | 1013.7 hPa | 0 mm | 4.47 m/s, 223° | 224 W/m² | - |
| 1778008605 | 20.56° C | 60% | 1013.8 hPa | 0 mm | 4.47 m/s, 247° | 216 W/m² | - |
| 1778008303 | 20.56° C | 59% | 1013.9 hPa | 0 mm | 4.02 m/s, 229° | 215 W/m² | - |
| 1778007999 | 20.56° C | 60% | 1013.9 hPa | 0 mm | 2.24 m/s, 220° | 199 W/m² | - |
| 1778007698 | 20.56° C | 60% | 1013.9 hPa | 0 mm | 3.13 m/s, 222° | 239 W/m² | - |
| 1778007395 | 20.56° C | 59% | 1013.9 hPa | 0 mm | 4.47 m/s, 229° | 226 W/m² | - |
| 1778007092 | 21.11° C | 59% | 1014.3 hPa | 0 mm | 3.58 m/s, 235° | 225 W/m² | - |
| 1778006788 | 20.56° C | 59% | 1014.1 hPa | 0 mm | 4.47 m/s, 249° | 270 W/m² | - |
| 1778006485 | 20.56° C | 59% | 1014.4 hPa | 0 mm | 4.92 m/s, 228° | 246 W/m² | - |
| 1778006182 | 20.56° C | 58% | 1014.5 hPa | 0 mm | 4.47 m/s, 254° | 227 W/m² | - |
| 1778005880 | 20.56° C | 59% | 1014.3 hPa | 0 mm | 3.13 m/s, 208° | 307 W/m² | - |
| 1778005576 | 21.11° C | 58% | 1014.2 hPa | 0 mm | 6.71 m/s, 217° | 325 W/m² | - |
| 1778005273 | 20.56° C | 59% | 1014.1 hPa | 0 mm | 2.68 m/s, 235° | 326 W/m² | - |
| 1778004969 | 20.56° C | 59% | 1014.4 hPa | 0 mm | 4.47 m/s, 250° | 342 W/m² | - |
* Rain latest hour (hover to see other rain measurements)
** Current wind speed in m/s (hover to see current wind gust speed)